Probability
0 0 0 0 0 0 0 0 0 0 0 0 0 0 0 0 0 0 0 0 0 0 0 0 0 0 0 0 0 0 0 0 0 0 0 0 0 0 0 0 0 0 0
0 0 0 0 0 0 0 0 0 0 0 0 0 0 0 0 0 0 0 0 0 0 0 0 0 0 0 0 0 0 0 0 0 0 0 0 0 0 0 0 0 0 0
0 0 0 0 0 0 0 0 0 0 0 0 0 0 0 0 0 0 0 0 0 0 0 0 0 0 0 0 0 0 0 0 0 0 0 0 0 0 0 0 0 0 0
0 0 0 0 0 0 0 0 0 0 0 0 0 0 0 0 0 0 0 0 0 0 0 0 0 0 0 0 0 0 0 0 0 0 0 0 0 0 0 0 0 0 0
0 0 0 0 0 0 0 0 0 0 0 0 0 0 0 0 0 0 0 0 0 0 0 0 0 0 0 0 0 0 0 0 0 0 0 0 0 0 0 0 0 0 0
0 0 0 0 0 0 0 0 0 0 0 0 0 0 0 0 0 0 0 0 0 0 0 0 0 0 0 0 0 0 0 0 0 0 0 0 0 0 0 0 0 0 0
0 0 0 0 0 0 0 0 0 0 0 0 0 0 0 0 0 0 0 0 0 0 0 0 0 0 0 0 0 0 0 0 0 0 0 0 0 0 0 0 0 0 0
1 1 0 0 0 0 0 0 0 0 0 0 0 0 0 0 0 0 0 0 0 0 0 0 0 0 0 0 0 0 0 0 0 0 0 0 0 0 0 0 0 0 0
2 2 1 0 0 0 0 0 0 0 0 0 0 0 0 0 0 0 0 0 0 0 0 0 0 0 0 0 0 0 0 0 0 0 0 0 0 0 0 0 0 0 0
3 2 1 0 0 0 0 0 0 0 0 0 0 0 0 0 0 0 0 0 0 0 0 0 0 0 0 0 0 0 0 0 0 0 0 0 0 0 0 0 0 0 0
2 1 0 0 0 0 0 0 0 0 0 0 0 0 0 0 0 0 0 0 0 0 0 0 0 0 0 0 0 0 0 0 0 0 0 0 0 0 0 0 0 0 0
1 0 0 0 0 0 0 0 0 0 0 0 0 0 0 0 0 0 0 0 0 0 0 0 0 0 0 0 0 0 0 0 0 0 0 0 0 0 0 0 0 0 0
0 0 0 0 0 0 0 0 0 0 0 0 0 0 0 0 0 0 0 0 0 0 0 0 0 0 0 0 0 0 0 0 0 0 0 0 0 0 0 0 0 0 0
0 0 0 0 0 0 0 0 0 0 0 0 0 0 0 0 0 0 0 0 0 0 0 0 0 0 0 0 0 0 0 0 0 0 0 0 0 0 0 0 0 0 0
1 1 2 1 0 0 0 0 0 0 0 0 0 0 0 0 0 0 0 0 0 0 0 0 0 0 0 0 0 0 0 0 0 0 0 0 0 0 0 0 0 0 0
2 3 3 2 1 0 0 0 0 0 0 0 0 0 0 0 0 0 0 0 0 0 0 0 0 0 0 0 0 0 0 0 0 0 0 0 0 0 0 0 0 0 0
3 3 3 3 1 0 0 0 0 0 0 0 0 0 0 0 0 0 0 0 0 0 0 0 0 0 0 0 0 0 0 0 0 0 0 0 0 0 0 0 0 0 0
2 3 3 3 2 1 0 0 0 0 0 0 0 0 0 0 0 0 0 0 0 0 0 0 0 0 0 0 0 0 0 0 0 0 0 0 0 0 0 0 0 0 0
3 3 2 2 3 2 1 1 0 1 1 1 1 0 0 0 0 0 0 0 0 0 0 0 0 0 0 0 0 0 0 0 0 0 0 0 0 0 0 0 0 0 0
3 4 3 2 2 2 2 2 2 2 2 2 2 1 0 0 0 0 0 0 0 0 0 0 0 0 0 0 0 0 0 0 0 0 0 0 0 0 0 0 0 0 0
2 4 4 2 1 1 2 2 3 3 3 3 3 2 1 1 0 0 0 0 0 0 0 0 0 0 0 0 0 0 0 0 0 0 0 0 0 0 0 0 0 0 0
3 4 5 4 1 0 1 1 2 2 2 2 3 3 3 2 1 0 0 0 0 0 0 0 0 0 0 0 0 0 0 0 0 0 0 0 0 0 0 0 0 0 0
3 3 3 4 3 1 0 1 1 1 1 1 1 2 2 2 2 1 0 0 0 0 0 0 1 1 1 1 0 0 0 0 0 0 0 0 0 0 0 0 0 0 0
2 2 2 3 4 3 2 2 1 0 0 0 0 1 1 1 1 1 0 1 1 0 0 0 1 2 2 1 0 0 0 0 0 0 0 0 0 0 0 0 0 0 0
3 3 2 3 4 5 5 3 2 1 0 0 0 0 0 0 0 0 0 1 1 0 0 0 0 1 1 1 0 0 0 0 0 0 0 0 0 0 0 0 0 0 0
3 3 2 3 4 5 7 6 3 1 1 1 0 0 0 0 0 0 0 1 1 0 0 0 0 0 0 0 0 0 0 0 0 0 0 0 0 0 0 0 0 0 0
Wind_Speed
11 14 16 16 15 14 13 13 12 11 11 12 12 12 12 12 11 11 11 12 12 13 13 13 13 13 14 14 13 13 12 12 11 11 11 11 11 11 11 11 10 7 11
15 16 15 15 16 15 14 13 12 12 12 12 12 12 11 12 12 11 11 12 12 12 12 12 12 12 13 12 12 11 10 9 8 6 6 8 10 10 10 10 10 6 10
16 16 14 14 15 14 13 13 12 12 12 12 11 11 11 11 11 11 11 11 11 11 11 11 11 11 11 10 10 9 8 6 4 4 3 2 6 8 8 8 8 8 8
16 15 14 13 14 14 14 13 12 12 12 11 11 11 11 11 10 11 11 10 10 10 10 10 9 9 9 9 8 8 6 4 5 6 2 3 5 7 6 6 6 6 6
14 13 14 14 14 15 14 13 12 12 11 11 11 11 10 10 10 10 10 10 9 9 9 9 8 8 7 7 6 6 4 4 6 5 2 4 4 5 5 5 4 4 4
12 13 15 14 14 14 14 13 12 12 11 11 11 10 10 10 10 9 9 9 8 8 8 7 7 6 6 5 4 4 3 5 7 2 2 3 3 4 4 3 3 2 2
11 13 14 14 13 13 13 13 12 12 11 10 11 10 10 10 9 8 8 8 8 7 7 6 6 5 4 3 3 2 4 7 5 2 1 2 3 3 2 2 3 3 3
11 12 13 12 12 12 11 11 11 11 10 10 10 10 10 9 8 8 7 7 7 6 6 5 4 4 3 2 1 1 3 6 6 4 1 2 3 2 2 2 3 4 4
10 11 11 9 10 10 10 10 9 9 9 9 9 9 8 8 8 7 7 6 6 6 5 5 4 3 2 1 1 2 4 6 5 4 2 2 3 1 2 4 4 4 5
9 10 10 9 9 8 7 9 9 8 8 8 8 8 8 7 7 7 6 6 6 5 5 4 4 3 3 3 3 3 5 6 5 4 1 2 2 1 4 5 5 5 6
8 8 9 10 9 8 8 9 8 8 7 8 7 8 8 5 6 6 7 7 6 5 5 4 4 4 4 5 6 6 5 3 4 2 1 2 2 3 5 6 6 6 6
8 8 8 9 8 8 8 8 6 6 6 6 5 7 5 5 4 5 8 8 7 6 5 6 6 5 5 4 6 7 3 4 3 2 1 3 2 4 6 6 6 6 6
8 8 7 8 8 7 5 6 4 4 5 6 7 7 5 4 3 3 3 4 4 5 4 5 5 4 4 3 2 3 3 2 2 2 1 3 3 5 6 7 7 6 6
8 8 7 7 7 7 6 5 5 4 4 4 5 7 5 3 3 3 3 4 4 3 4 3 3 4 4 3 2 2 2 2 2 1 1 4 4 4 6 6 6 6 6
8 9 8 7 7 7 6 5 5 4 4 5 5 5 5 4 4 4 3 3 4 3 4 3 3 3 3 3 3 3 3 3 3 2 1 3 4 5 5 6 6 7 7
8 8 8 7 7 6 5 4 4 4 4 4 4 6 6 4 4 4 4 3 3 3 3 3 3 3 3 2 3 3 3 3 3 3 2 2 4 4 5 6 7 7 7
8 8 8 8 7 7 7 6 4 4 4 4 4 6 6 5 5 4 4 4 4 4 4 3 3 2 2 3 3 3 3 3 3 3 3 2 2 3 5 6 6 6 7
7 8 8 7 7 7 6 6 4 4 4 4 4 4 6 6 6 4 4 4 4 4 3 3 3 2 3 2 2 2 2 2 4 4 3 3 2 2 2 4 5 5 6
6 7 8 8 8 7 6 5 5 4 4 4 4 4 5 6 6 5 4 4 4 3 3 3 3 3 3 3 3 2 2 2 3 3 3 2 2 2 2 2 3 3 4
4 5 6 7 8 7 6 5 4 4 4 4 4 5 6 6 7 6 4 5 4 3 3 3 3 3 3 2 2 2 3 3 3 3 3 2 1 2 1 1 1 1 2
3 4 5 5 6 6 5 6 6 6 5 4 4 5 6 6 7 6 5 5 5 5 5 5 4 4 3 2 1 2 3 5 4 3 2 2 1 1 1 1 0 0 1
2 2 4 5 5 5 5 6 4 4 4 5 4 5 7 7 7 6 7 5 5 5 5 6 5 3 3 3 3 2 2 2 2 2 2 2 1 0 1 1 1 1 0
0 1 2 3 4 5 4 3 3 3 2 4 5 6 7 7 7 6 7 6 6 6 5 6 6 6 5 4 4 3 3 3 1 1 1 2 1 1 1 1 1 0 1
1 1 1 1 1 2 3 4 5 5 6 6 5 5 5 7 7 7 7 7 7 6 6 6 6 5 5 5 4 4 4 2 2 1 1 1 1 1 1 1 1 1 1
2 2 2 2 1 1 1 3 5 4 4 3 3 4 5 5 6 6 7 7 7 6 6 6 6 6 6 5 4 3 4 4 3 3 3 2 1 1 1 1 1 1 1
4 3 3 2 2 2 1 1 2 3 2 2 3 3 3 2 3 5 5 5 6 5 6 6 6 6 6 6 5 4 3 3 3 4 4 3 2 2 2 1 1 1 0
Wind_Direction
132 137 147 147 146 144 140 136 134 132 128 126 123 119 115 110 105 103 102 100 97 93 88 86 84 82 79 76 74 73 73 71 72 74 78 77 72 68 61 54 61 59 60
128 138 147 146 146 145 142 138 136 133 130 127 125 122 118 114 110 106 103 102 99 95 90 86 86 83 79 77 76 74 73 71 69 67 76 81 76 68 64 60 61 59 58
128 137 146 145 146 144 142 140 139 137 134 131 128 125 121 118 115 111 107 104 101 98 95 92 89 85 82 79 77 75 73 63 39 2 352 105 87 68 64 64 61 57 53
131 142 148 144 145 145 143 143 143 142 139 137 134 130 126 123 122 118 114 110 106 102 99 96 94 89 85 81 77 72 64 38 353 332 354 75 77 70 60 54 52 50 47
133 141 140 145 145 146 147 147 146 145 143 142 140 137 133 127 125 122 120 116 111 107 104 101 98 94 87 82 77 69 48 359 329 315 17 73 79 72 57 47 44 39 32
134 135 142 147 148 150 151 153 152 151 150 149 146 143 137 130 126 125 125 122 118 114 111 108 103 99 93 85 76 60 16 338 321 312 54 75 84 68 47 30 24 17 1
134 132 146 148 150 152 155 156 157 157 156 153 149 146 140 136 133 133 133 131 128 124 119 115 112 110 104 91 73 38 352 328 307 316 33 76 88 72 29 356 344 340 333
131 132 145 147 149 153 157 158 159 160 158 155 155 152 148 145 145 144 143 143 140 140 135 130 125 122 120 108 78 356 326 315 320 321 359 92 99 69 355 331 320 319 321
129 133 145 153 154 153 156 157 158 159 161 160 160 156 154 153 153 152 153 156 155 154 152 150 146 148 157 178 233 282 295 298 300 296 311 95 116 46 313 304 302 300 299
132 140 151 160 162 161 160 159 158 159 161 162 161 159 157 159 160 163 166 168 168 165 166 168 171 186 207 225 238 250 269 288 271 271 284 129 139 276 294 294 295 296 295
145 153 159 163 166 166 168 167 162 163 165 163 162 164 163 176 176 177 181 171 175 178 184 189 199 213 223 234 235 238 255 253 265 278 299 143 181 274 285 287 288 289 293
163 167 167 165 168 169 172 160 171 176 172 183 177 174 187 196 182 174 168 173 180 188 200 211 218 225 230 234 229 226 242 252 270 276 238 180 219 272 279 282 284 286 291
172 174 173 169 169 169 161 159 173 177 173 193 186 181 191 190 168 158 156 166 184 197 209 211 213 223 226 228 218 209 235 258 269 275 252 200 224 265 276 276 278 283 287
178 179 181 173 169 172 167 168 171 174 173 184 187 184 183 179 178 175 175 175 184 190 202 203 207 217 226 237 241 247 260 260 260 263 255 211 216 250 269 272 276 282 286
183 180 182 180 176 174 173 174 178 179 176 184 181 183 182 178 184 188 187 181 184 187 192 204 214 216 218 232 240 240 251 265 267 266 270 227 223 237 258 270 277 281 285
183 181 179 185 184 178 179 180 182 182 180 185 177 181 186 186 186 187 188 187 195 196 197 199 207 210 216 223 239 243 245 252 255 255 252 245 231 233 249 262 271 278 284
179 177 178 185 187 186 189 188 188 186 182 186 183 183 186 192 192 188 190 192 199 200 200 202 215 214 221 223 232 244 249 247 248 250 247 237 219 224 236 251 264 276 283
178 178 179 182 188 191 193 191 192 195 191 187 184 186 192 196 197 193 195 199 199 198 195 195 204 211 224 224 233 244 243 241 242 242 240 231 221 209 220 235 254 269 279
176 178 178 180 187 191 192 194 196 196 197 191 187 189 197 201 201 197 200 201 197 197 196 196 200 205 216 224 233 240 248 249 247 243 235 230 227 216 206 201 228 260 276
169 173 178 181 185 185 186 192 198 200 201 199 198 199 199 202 201 200 200 202 196 194 197 197 205 209 207 213 236 251 251 247 245 242 231 221 224 220 216 206 215 253 274
166 171 174 180 188 183 184 192 199 206 203 204 206 205 207 205 202 200 201 200 198 200 200 198 200 209 214 197 219 264 258 242 232 229 211 201 213 216 202 207 205 208 277
170 185 189 190 188 190 196 195 196 191 201 207 206 212 215 211 208 204 202 202 201 205 204 203 201 202 207 193 188 217 275 284 245 221 194 184 202 196 183 183 207 188 163
151 221 224 207 196 197 194 187 176 174 195 206 209 213 217 215 213 207 204 205 205 205 210 207 203 200 207 207 198 195 209 231 287 268 201 179 175 181 196 217 200 165 145
39 349 321 301 213 201 193 188 186 198 209 213 212 211 210 213 215 212 208 208 210 210 211 211 210 210 204 210 211 219 222 207 199 260 270 200 172 200 219 226 192 199 158
36 18 359 358 358 340 203 202 203 217 221 207 203 211 213 212 213 214 213 213 214 214 213 211 211 212 211 213 210 208 224 235 227 219 242 236 231 226 225 222 195 206 179
32 24 13 3 358 1 350 222 216 220 216 208 211 218 217 218 214 213 211 214 218 218 217 216 214 214 216 218 219 212 201 202 210 216 231 238 237 232 234 219 204 205 213